Theta_e
319 316 318 322 323 325 326 326 328 325 323 323 321 321 320 318 319 321 324 327 328 328 328 327 327 327 327 327 328 329 328 328 328 326 323 320 319 317 314 313 312 310 309 308
320 319 318 319 320 323 325 326 326 325 324 321 321 320 321 318 319 321 323 324 324 327 327 327 327 326 326 326 327 328 327 324 323 320 317 315 313 311 310 308 307 307 307 308
324 320 320 323 320 318 322 323 324 326 325 321 322 322 320 319 317 319 321 321 320 322 324 326 327 326 326 324 323 322 320 317 317 315 312 310 308 307 307 307 307 306 307 306
324 322 327 322 319 319 318 319 322 323 321 322 322 321 321 317 318 317 318 319 319 319 318 323 324 325 324 321 318 316 313 311 310 310 308 308 309 307 306 306 306 305 301 298
326 326 326 325 322 321 321 320 318 321 322 321 320 319 318 317 317 317 316 315 315 316 315 315 317 319 318 314 313 311 308 309 310 310 309 308 306 305 305 305 303 299 295 294
318 327 330 323 322 321 321 325 319 318 319 319 318 323 321 314 315 315 314 312 309 311 312 312 312 314 312 308 307 305 309 310 309 308 307 306 305 305 304 301 296 293 292 291
320 323 323 319 318 322 328 326 322 320 318 318 320 322 317 312 312 310 310 309 309 309 308 308 309 308 304 304 304 308 308 308 307 306 306 305 305 302 296 293 290 290 290 290
318 322 325 316 318 327 323 314 316 319 317 318 316 314 313 311 310 309 309 308 308 307 306 306 306 306 302 299 302 304 303 302 302 303 301 301 299 293 291 290 290 290 289 288
320 319 316 315 315 314 313 313 315 315 314 314 313 313 312 311 309 308 309 308 307 306 304 305 305 306 298 294 297 299 301 300 298 296 298 295 292 290 290 290 291 289 288 287
319 318 319 318 316 314 312 312 314 313 313 313 311 307 303 305 308 308 307 307 306 305 304 301 302 301 298 297 299 300 297 293 292 293 291 291 291 291 290 290 290 289 288 287
317 316 317 318 317 314 311 313 313 312 311 311 310 310 309 309 308 307 307 307 306 305 302 299 300 297 297 297 298 295 292 291 291 291 291 290 290 290 290 290 290 288 287 288
319 315 317 317 316 312 312 313 313 311 310 310 311 310 310 309 308 307 306 306 305 303 301 298 299 296 295 297 297 295 291 291 291 290 290 290 289 289 290 290 290 289 289 289
315 315 316 315 315 312 311 312 311 311 310 309 310 310 309 308 306 306 306 305 304 303 302 300 298 296 295 295 295 295 291 290 290 291 290 289 289 289 288 289 289 289 289 288
313 312 313 311 313 310 310 310 309 309 309 308 308 307 306 305 304 305 305 305 304 304 302 301 298 295 294 295 295 294 292 291 290 290 290 289 290 290 289 289 287 286 286 287
311 310 313 310 307 308 308 307 307 307 306 305 305 305 305 304 303 301 303 305 304 303 301 299 297 294 294 295 296 295 291 290 290 290 290 290 290 290 289 288 287 286 285 285
307 306 306 307 306 306 305 304 303 303 302 301 301 299 298 298 298 299 299 301 299 297 298 298 297 297 297 297 296 294 292 290 290 290 291 290 288 288 288 286 285 285 284 284
306 306 306 304 303 303 303 302 302 301 299 299 298 297 296 295 295 295 295 298 299 297 297 297 296 296 296 295 295 291 290 289 291 291 291 290 289 289 287 285 284 284 284 283
305 307 306 304 301 300 299 299 299 298 298 297 295 294 293 293 293 291 290 291 291 292 294 295 294 294 293 293 293 292 293 292 292 292 291 290 290 289 287 286 285 284 283 282
299 300 300 300 300 300 299 299 298 296 295 294 293 290 290 291 291 291 291 291 291 290 290 293 294 294 294 294 294 294 294 293 291 291 291 290 288 288 286 286 285 284 283 282
297 297 296 296 297 298 295 294 293 292 292 291 291 291 291 291 291 291 291 290 291 291 291 291 291 291 292 292 292 292 292 291 291 290 289 288 287 286 286 286 286 284 284 283
294 294 293 293 292 291 292 292 292 290 290 292 292 291 291 290 291 291 290 290 291 292 291 291 290 290 291 291 291 291 291 289 288 287 287 287 286 284 285 286 285 285 284 283
292 292 292 292 292 292 290 291 291 290 289 290 291 291 291 290 290 291 291 289 290 290 291 290 290 291 290 290 290 290 289 288 286 286 286 286 286 285 286 286 285 285 284 284
291 290 290 291 291 291 290 290 289 289 290 291 291 291 291 290 290 290 289 289 289 290 290 290 289 289 289 288 288 288 288 288 287 287 287 287 287 287 286 286 286 285 285 284
290 290 290 290 290 291 292 291 290 290 289 290 290 290 290 289 289 290 290 289 289 289 289 289 288 288 287 287 287 287 287 287 287 287 287 287 287 287 286 286 285 285 285 285
290 290 290 290 291 291 291 291 290 290 290 290 290 290 290 290 290 290 290 290 289 288 288 288 287 287 286 285 285 286 286 286 286 286 286 286 286 286 286 286 286 285 285 285
290 290 290 291 291 291 291 291 290 290 290 289 289 290 291 291 291 291 290 289 288 287 286 287 287 286 286 286 285 286 286 285 286 286 286 286 285 286 286 286 285 285 285 284
290 290 290 290 291 291 291 291 290 290 290 290 289 289 290 290 290 289 289 288 287 286 285 285 286 285 286 286 286 286 286 285 285 285 285 285 285 285 285 285 285 284 284 284
Wind_Speed
28 13 14 22 22 28 27 30 24 34 22 20 8 10 10 11 5 9 13 16 16 14 13 18 20 22 25 30 36 36 33 31 31 28 24 19 19 20 19 17 15 15 13 10
26 24 19 12 15 21 30 33 25 28 21 8 11 8 3 7 9 12 13 16 16 16 13 13 23 26 27 29 36 39 35 28 27 22 22 23 23 21 19 17 15 12 9 6
26 21 7 21 32 24 16 24 26 24 34 6 12 14 10 10 11 14 15 16 16 17 16 22 27 30 28 30 30 30 26 25 26 28 28 26 23 21 18 15 11 8 7 4
15 6 20 24 21 24 24 18 19 25 6 18 16 15 15 10 12 13 13 14 16 14 17 24 24 25 25 27 29 29 28 30 32 33 31 26 21 16 10 4 3 3 2 1
8 13 8 14 19 18 18 30 18 19 20 16 11 8 10 7 9 13 14 14 13 20 20 25 28 31 31 30 33 33 33 37 36 34 30 24 15 7 2 2 2 5 5 5
5 10 15 32 8 15 12 23 26 26 18 10 11 14 9 8 6 6 6 8 11 18 22 26 27 35 36 31 34 32 41 39 34 30 24 16 9 4 3 8 9 9 9 7
7 4 7 5 4 17 13 15 17 23 22 27 16 17 8 9 5 5 5 10 19 21 19 22 29 32 29 30 31 43 41 35 32 25 20 14 9 14 15 13 13 12 11 9
6 7 12 6 4 19 7 2 3 12 10 11 11 8 10 8 8 10 12 13 17 21 21 24 30 38 30 28 35 35 33 30 24 20 21 20 20 17 16 16 14 12 10 8
11 7 4 5 6 4 2 3 3 6 6 11 12 6 9 10 12 9 11 14 17 24 24 24 27 39 29 26 30 28 26 23 22 23 21 20 22 22 19 14 13 11 10 8
4 6 5 5 2 3 2 2 2 3 12 12 10 10 7 9 10 10 10 10 21 24 21 18 24 27 33 31 28 28 28 25 23 23 22 20 19 17 16 13 11 12 10 9
3 6 4 9 7 8 3 8 9 7 4 7 16 12 14 10 11 10 13 18 21 21 19 18 22 24 27 29 29 29 27 27 25 23 23 21 17 14 12 9 7 12 10 11
11 9 13 9 17 10 9 12 16 11 4 4 10 14 12 10 10 13 13 20 20 21 24 23 26 24 24 27 27 29 27 24 24 24 21 19 18 16 9 7 6 6 5 6
6 11 16 8 16 13 13 13 12 15 17 16 12 16 14 12 6 16 17 19 21 23 27 27 25 24 24 26 25 26 26 22 23 23 22 21 17 15 15 9 6 8 8 7
4 8 3 8 10 12 10 11 9 5 7 12 14 12 10 11 13 13 14 20 25 27 28 27 27 26 27 28 27 23 22 25 26 24 22 20 16 14 12 11 11 8 7 7
10 7 10 8 10 9 13 14 13 12 11 10 9 13 13 14 11 11 19 24 26 27 27 26 26 25 26 28 26 23 23 23 21 23 22 19 16 15 13 13 14 13 13 10
6 6 9 12 14 14 16 15 16 11 11 12 12 11 13 17 18 19 22 25 23 15 24 26 25 26 26 26 25 23 22 22 25 25 22 19 18 16 14 16 17 17 16 16
8 5 10 9 10 12 12 13 16 15 12 14 13 19 21 19 18 17 18 16 20 21 23 24 24 25 27 28 28 24 22 24 24 22 21 19 17 16 16 20 21 19 17 16
2 8 13 13 13 13 11 12 14 16 15 16 21 21 16 10 11 13 18 20 21 18 17 19 24 27 27 26 24 22 23 23 22 21 19 17 15 16 16 19 20 19 18 16
10 11 9 11 13 14 15 14 11 13 19 21 19 10 14 16 17 17 19 18 17 17 16 19 21 23 22 21 20 20 19 19 20 18 15 14 15 15 16 19 19 17 17 18
12 13 12 11 11 16 12 13 18 16 17 25 23 18 13 15 17 17 15 10 10 10 19 19 20 20 21 20 19 19 19 19 17 15 15 16 15 15 17 17 17 17 17 17
11 13 14 13 12 13 16 17 20 11 17 21 21 15 17 18 17 18 14 7 11 15 19 19 19 20 20 20 19 18 17 15 14 16 16 17 17 15 18 18 18 17 18 17
9 11 12 11 12 11 13 16 20 21 20 21 19 21 21 17 17 14 13 13 18 21 20 19 18 18 19 19 17 16 15 14 15 16 17 18 18 17 19 19 19 18 18 17
9 10 10 10 10 12 16 15 15 19 19 18 20 20 18 19 19 16 7 17 22 21 20 17 17 17 16 15 15 15 15 14 15 15 15 17 18 17 18 19 19 17 17 16
10 9 9 15 16 13 11 12 17 18 19 17 17 19 23 19 16 14 14 20 18 17 17 18 19 17 16 13 14 14 14 14 13 13 14 14 15 16 17 18 17 17 16 16
10 10 12 11 9 6 14 16 17 17 19 19 19 19 19 19 19 18 23 19 16 15 17 17 17 16 15 14 16 15 14 12 12 13 14 14 15 15 16 17 17 16 16 17
7 5 7 10 9 12 15 16 10 13 15 13 14 18 16 16 17 18 20 19 20 14 15 16 15 15 15 13 15 14 13 11 12 14 15 15 14 15 16 17 17 16 16 17
9 10 7 7 10 12 13 13 13 12 15 16 15 19 19 16 19 21 22 20 17 15 13 13 12 13 13 13 13 13 13 11 11 14 14 14 14 15 16 16 16 16 16 17
Wind_Direction
229 228 209 217 217 213 212 219 217 236 234 228 206 205 215 224 180 168 182 182 186 190 186 184 185 190 194 199 201 201 205 211 219 214 209 194 175 168 156 149 144 139 131 107
232 227 243 251 233 221 221 225 230 239 250 169 218 238 199 199 181 190 190 190 193 194 185 185 188 192 194 198 203 203 208 209 204 191 164 158 150 144 136 128 114 97 84 88
233 226 220 250 238 231 238 230 225 228 237 190 211 219 215 218 193 196 193 192 191 198 192 192 196 194 193 195 196 195 185 171 160 152 145 139 130 120 112 106 86 57 12 342
235 144 217 238 237 234 233 237 237 246 229 216 216 216 222 201 194 202 203 199 197 197 194 199 198 189 182 179 171 159 149 145 145 140 130 125 116 111 99 81 119 174 148 145
221 220 270 269 227 208 214 245 227 239 239 226 214 230 240 187 194 200 199 201 197 191 183 182 175 170 162 151 151 145 137 141 140 136 131 132 134 113 112 249 190 137 136 141
155 221 219 242 169 190 191 253 232 226 220 196 176 223 219 196 179 184 176 158 149 158 157 154 155 161 151 143 141 138 144 140 139 141 144 148 133 137 238 169 142 133 123 103
204 225 272 249 237 160 175 245 204 212 213 212 208 222 186 145 134 127 110 111 124 122 122 132 143 141 126 133 136 143 144 149 154 155 158 149 158 170 157 140 135 122 103 91
181 195 244 200 144 175 219 216 225 203 197 187 189 143 143 127 122 122 121 120 121 115 115 127 137 135 126 125 143 149 150 149 149 153 150 142 146 143 140 141 124 104 111 119
186 208 202 200 196 235 214 152 189 146 152 141 130 142 137 137 125 108 116 119 122 122 118 122 132 137 126 136 150 144 141 139 140 139 133 144 148 145 144 134 120 136 150 156
121 223 219 230 222 140 228 101 21 84 136 142 127 125 102 117 115 116 106 121 127 124 120 108 128 134 139 148 147 147 141 141 144 137 139 146 148 148 139 136 146 155 170 182
266 254 237 251 240 153 155 109 97 73 23 148 126 137 134 129 123 123 127 136 130 124 118 114 138 135 147 153 153 145 144 144 142 144 145 147 137 135 137 149 157 172 189 191
215 186 195 213 220 141 164 173 158 139 103 78 130 135 130 132 141 141 138 131 126 129 130 141 144 142 156 162 163 154 141 145 149 152 152 149 142 140 149 159 179 198 215 214
207 191 203 181 163 179 171 173 178 158 153 150 151 146 153 146 138 132 129 132 139 146 149 151 152 154 165 166 164 160 150 153 158 162 162 158 161 156 150 154 169 183 191 194
193 132 138 164 186 172 155 164 130 96 124 138 134 125 124 120 120 134 148 151 150 153 154 158 163 163 168 168 167 163 164 164 165 169 169 171 172 170 172 170 161 157 174 183
185 218 204 156 127 123 133 133 131 129 123 107 116 130 133 132 129 126 149 156 154 157 162 166 166 166 170 173 172 167 168 166 167 170 175 176 180 177 183 178 170 173 164 162
159 139 128 148 142 145 142 142 133 131 126 120 118 114 109 109 112 120 137 153 140 154 166 173 177 177 176 174 173 174 176 173 171 172 177 180 181 181 188 185 178 180 178 176
113 122 126 117 128 134 152 152 139 138 128 123 119 116 112 107 103 104 122 135 148 154 170 177 179 178 176 176 175 172 174 170 171 178 181 186 188 192 197 193 189 187 189 194
112 172 166 149 144 135 127 121 123 127 126 123 119 119 119 123 131 127 125 134 131 133 153 171 174 174 176 176 181 177 171 170 182 188 192 191 194 199 198 197 192 190 191 196
106 103 106 126 138 129 123 120 112 109 121 126 119 107 106 111 120 126 131 127 130 128 149 155 162 168 174 179 181 182 183 186 187 189 189 190 190 191 198 195 191 193 193 193
81 85 81 79 99 108 96 103 117 110 118 115 111 108 113 122 126 122 125 111 130 146 150 151 162 167 170 175 185 185 185 187 182 184 186 184 191 193 197 194 193 195 202 200
82 84 83 86 83 90 112 127 124 119 117 125 127 131 128 129 133 136 129 132 151 162 167 168 168 168 173 178 183 180 180 177 188 192 185 188 183 185 193 194 196 198 202 203
90 89 90 93 97 94 91 108 119 121 119 113 119 127 130 132 136 140 158 165 169 171 167 166 171 172 175 181 180 178 175 176 176 184 187 192 192 192 195 198 199 203 206 206
104 102 99 97 105 106 108 112 117 123 122 130 138 142 146 149 154 152 143 165 165 167 166 163 169 176 181 184 181 178 178 182 185 188 189 191 194 198 201 201 203 209 208 210
109 106 106 114 117 118 119 115 114 118 124 130 137 147 146 146 152 164 155 159 163 164 172 174 175 175 172 181 183 183 185 184 187 189 193 195 198 204 206 205 206 208 211 215
120 118 128 137 137 128 127 130 124 129 134 139 150 158 158 152 143 149 151 156 165 177 184 181 172 172 176 177 186 189 192 188 191 195 196 198 199 205 210 209 210 208 212 213
123 129 123 124 119 130 132 137 134 140 135 131 138 153 161 159 158 157 165 168 175 180 177 171 176 181 184 186 188 196 194 189 197 201 201 201 208 213 214 213 210 213 215 213
108 115 112 103 117 124 136 138 140 140 144 148 145 164 172 168 168 170 170 171 171 163 169 169 176 188 193 196 195 196 194 200 210 208 207 211 215 218 215 215 217 218 217 218